[[{"header":{"parameterUnit":"m.s-1","parameterCategory":1,"la1":30.2991,"la2":30.254,"lo1":-89.0895,"lo2":-89.0444,"dy":0.0017,"dx":0.0017,"nx":28,"ny":28,"refTime":"2024-11-23T09:00:00:Z","depth":0,"parameterNumber":2,"parameterNumberName":"U-component_of_WINDS"},"data":[0,0,0,0,0,0,0,0,0,0,0,0,0,0,0,0,0,0,0,0,0,0,0,0,0,0,0,0,0,0,0,0,0,0,0,0,0,0,0,0,0,0,0,0,0,0,0,0,0,0,0,0,0,0,0,0,0,0,1.0635,1.0635,0,1.0643,1.0643,1.0643,1.0608,1.0607,1.0606,1.0605,1.0611,1.0612,1.0613,0,0,0,0,0,0,0,0,0,0,0,0,0,1.0588,1.0589,1.0635,1.0635,1.0635,1.0643,1.0643,1.0643,1.0608,1.0607,1.0605,1.0604,1.0611,1.0612,1.0613,0,0,0,0,0,0,0,0,0,0,0,0,0,1.0603,1.0589,1.0635,1.0619,1.0617,1.0643,1.0643,1.0643,1.0608,1.0607,1.0605,1.0604,1.061,1.0612,1.0613,1.0655,0,0,1.0619,1.0619,0,0,0,0,0,0,0,0,1.0602,1.0605,1.0621,1.062,1.0618,1.0623,1.0628,1.0647,1.0608,1.0611,1.0605,1.0603,1.0616,1.0617,1.0622,1.0655,1.0655,1.0619,1.062,1.062,1.0621,0,0,0,0,0,0,0,1.0601,1.0604,1.0638,1.0621,1.062,1.061,1.0611,1.0632,1.0622,1.0611,1.0609,1.061,1.0615,1.062,1.0622,1.0655,1.0619,1.062,1.0621,1.0622,1.072,1.0722,0,0,0,0,0,0,1.0603,1.0604,1.0638,1.0638,1.0606,1.0612,1.0613,1.0623,1.0622,1.062,1.0611,1.0608,1.0618,1.062,1.0622,1.0668,1.062,1.0622,1.0623,1.0719,1.0721,1.0723,0,0,0,0,0,0,1.0602,1.0606,1.0637,1.062,1.0624,1.0615,1.0626,1.0624,1.0629,1.0622,1.062,1.0619,1.0617,1.0619,1.0646,1.0668,1.0623,1.0624,1.0717,1.0719,1.0722,1.0762,0,0,0,0,0,0,1.06,1.0606,1.0622,1.0621,1.0625,1.0662,1.0628,1.0625,1.0632,1.0628,1.0628,1.0627,1.0616,1.0644,1.0648,1.0669,1.0626,1.0715,1.0718,1.0721,1.0758,1.0765,1.0771,0,0,0,0,0,1.0599,1.0633,1.0623,1.0627,1.0644,1.0664,1.0666,1.0653,1.0634,1.0649,1.0645,1.0627,1.0666,1.0647,1.0651,1.0673,1.0713,1.0717,1.0721,1.0756,1.0764,1.0771,0,0,0,0,0,0,1.0636,1.0632,1.0621,1.0656,1.066,1.0658,1.0677,1.0662,1.0672,1.0668,1.0651,1.0652,1.0681,1.068,1.066,1.0712,1.0686,1.0691,1.0711,1.0719,1.0725,1.0723,1.0627,0,0,0,0,0,1.0648,1.0665,1.0661,1.0692,1.0695,1.0686,1.0693,1.0683,1.0687,1.0689,1.0686,1.069,1.0703,1.0711,1.0723,1.0759,1.0758,1.0777,1.0783,1.0788,1.0791,1.0809,1.0816,1.0734,1.0734,1.0734,0,0,1.0673,1.0673,1.0685,1.0699,1.0701,1.0718,1.0687,1.0706,1.0718,1.0691,1.0716,1.0715,1.0718,1.0749,1.0763,1.0749,1.0814,1.0793,1.0797,1.0797,1.0813,1.0821,1.0828,1.0737,1.0737,1.0736,0,0,1.0727,1.073,1.0755,1.0758,1.0762,1.0756,1.0762,1.0762,1.076,1.0785,1.0764,1.0778,1.0801,1.0804,1.0808,1.0863,1.0846,1.0868,1.0899,1.0917,1.0923,1.0928,1.0946,1.0953,1.0872,1.0872,1.0872,0,1.0757,1.0781,1.0769,1.0789,1.0795,1.0773,1.0798,1.0801,1.0809,1.0813,1.0799,1.0826,1.0827,1.0858,1.0871,1.0876,1.0881,1.0866,1.0923,1.0929,1.0934,1.095,1.0957,1.0874,1.0874,1.0874,1.0873,0,1.0817,1.0835,1.0855,1.0862,1.0871,1.0894,1.0884,1.0894,1.0884,1.0879,1.0904,1.0905,1.0915,1.0922,1.0912,1.0951,1.0942,1.0926,1.0899,1.0944,1.0959,1.0965,1.0877,1.0877,1.0876,1.0875,0,0,1.0892,1.0893,1.0901,1.0903,1.0907,1.0919,1.0941,1.0951,1.0959,1.0966,1.0982,1.1002,1.0987,1.0992,1.0982,1.0998,1.1039,1.0979,1.0979,1.0988,1.1079,1.1089,1.1097,1.1029,1.103,1.1031,1.1078,0,1.0942,1.0978,1.0968,1.1004,1.1018,1.0998,1.1016,1.102,1.1017,1.1028,1.1024,1.1038,1.1018,1.102,1.1035,1.1031,1.1056,1.1028,1.1042,1.1042,1.1038,1.1105,1.1116,1.116,1.1084,1.1085,1.1086,0,1.1005,1.1014,1.1051,1.1051,1.1057,1.1073,1.1082,1.1094,1.1098,1.1094,1.11,1.1087,1.1107,1.1082,1.1108,1.1089,1.1094,1.1093,1.1095,1.1093,1.1065,1.1103,1.1175,1.118,1.1095,1.1095,1.1094,0,1.1052,1.1074,1.1098,1.1102,1.1103,1.1115,1.1116,1.1118,1.1125,1.1133,1.1137,1.1147,1.1152,1.1159,1.1149,1.1133,1.1176,1.1151,1.1172,1.1172,1.118,1.1179,1.1251,1.1188,1.1188,1.1188,1.1188,0,1.1107,1.113,1.1119,1.1134,1.1159,1.1147,1.1172,1.1171,1.1173,1.1186,1.1171,1.1184,1.1171,1.1183,1.1175,1.1197,1.12,1.1196,1.1193,1.1196,1.1196,1.1197,1.1193,1.119,1.119,1.1189,1.1189,0,1.1163,1.1157,1.1182,1.1181,1.1182,1.12,1.1199,1.1212,1.1208,1.1226,1.1229,1.1222,1.1235,1.1227,1.124,1.1235,1.1263,1.1257,1.1261,1.1258,1.1279,1.1276,1.1352,1.136,1.1295,1.1296,1.1296,0,1.1197,1.1214,1.1216,1.1224,1.1226,1.1239,1.1246,1.1236,1.1244,1.1249,1.1262,1.1273,1.1282,1.1303,1.1299,1.1309,1.1302,1.1328,1.1303,1.1304,1.1299,1.1297,1.1297,1.1331,1.1332,1.1333,1.1333,0,1.1257,1.1253,1.1264,1.1274,1.1283,1.129,1.1296,1.1304,1.1294,1.1303,1.1316,1.1323,1.1337,1.1348,1.1356,1.1356,1.1342,1.1342,1.1347,1.1348,1.1348,1.1346,1.1272,1.1339,1.1339,1.1338,1.1338,1.1338,1.1301,1.1315,1.1318,1.133,1.1334,1.134,1.1352,1.135,1.1361,1.1371,1.1364,1.1379,1.1382,1.1392,1.1394,1.1405,1.1395,1.1402,1.1404,1.1405,1.1407,1.1349,1.1407,1.1407,1.1407,1.1407,1.1407,0,1.1358,1.1359,1.1371,1.138,1.139,1.1378,1.1384,1.1392,1.1406,1.141,1.1419,1.1434,1.1445,1.1442,1.1452,1.1461,1.1455,1.1464,1.1461,1.1461,1.1417,1.141,1.1468,1.1468,1.1468,1.1468,1.1468,1.1468,1.1388,1.141,1.1407,1.143,1.1431,1.1446,1.145,1.1456,1.1459,1.1476,1.1485,1.1484,1.1485,1.1494,1.1504,1.1503,1.1506,1.1516,1.1513,1.1471,1.1464,1.1458,1.1452,1.1518,1.1518,1.1555,1.1556,1.1556]},{"header":{"parameterUnit":"m.s-1","parameterCategory":1,"la1":30.2991,"la2":30.254,"lo1":-89.0895,"lo2":-89.0444,"dy":0.0017,"dx":0.0017,"nx":28,"ny":28,"refTime":"2024-11-23T09:00:00:Z","depth":0,"parameterNumber":3,"parameterNumberName":"V-component_of_WINDS"},"data":[0,0,0,0,0,0,0,0,0,0,0,0,0,0,0,0,0,0,0,0,0,0,0,0,0,0,0,0,0,0,0,0,0,0,0,0,0,0,0,0,0,0,0,0,0,0,0,0,0,0,0,0,0,0,0,0,0,0,1.9853,1.9852,0,1.9818,1.9817,1.9817,1.9729,1.9727,1.9726,1.9724,1.9688,1.9689,1.969,0,0,0,0,0,0,0,0,0,0,0,0,0,1.9843,1.9843,1.9853,1.9852,1.9852,1.9818,1.9817,1.9817,1.973,1.9727,1.9725,1.9723,1.9688,1.9689,1.969,0,0,0,0,0,0,0,0,0,0,0,0,0,1.9831,1.9843,1.9853,1.9804,1.9799,1.9818,1.9817,1.9817,1.973,1.9727,1.9725,1.9722,1.9688,1.9689,1.969,1.9753,0,0,1.9693,1.9694,0,0,0,0,0,0,0,0,1.9832,1.9832,1.9812,1.9808,1.9802,1.9775,1.9801,1.9795,1.9731,1.9756,1.9724,1.9721,1.9719,1.9718,1.9717,1.9751,1.9749,1.9694,1.9694,1.9695,1.9695,0,0,0,0,0,0,0,1.9833,1.9833,1.9839,1.9812,1.9806,1.9784,1.9779,1.9799,1.9754,1.9754,1.9748,1.9745,1.9716,1.9716,1.9716,1.9749,1.9694,1.9695,1.9695,1.9696,1.9829,1.9832,0,0,0,0,0,0,1.9841,1.9834,1.984,1.9838,1.9811,1.9786,1.9781,1.9787,1.9753,1.9746,1.9747,1.9741,1.9716,1.9715,1.9714,1.9783,1.9695,1.9696,1.9697,1.9827,1.983,1.9833,0,0,0,0,0,0,1.9841,1.9842,1.9841,1.9834,1.9832,1.9789,1.9796,1.9787,1.9787,1.9748,1.974,1.9756,1.9713,1.9713,1.9743,1.9781,1.9696,1.9697,1.9823,1.9828,1.9832,1.9923,0,0,0,0,0,0,1.9841,1.9843,1.9867,1.9835,1.9833,1.9872,1.9799,1.9789,1.979,1.9781,1.9754,1.9747,1.9711,1.9742,1.9744,1.9781,1.9698,1.982,1.9825,1.983,1.9917,1.993,1.9942,0,0,0,0,0,1.9841,1.9894,1.9868,1.9869,1.9862,1.9874,1.9872,1.9831,1.9793,1.9816,1.9791,1.9748,1.9777,1.9746,1.9748,1.9785,1.9817,1.9824,1.983,1.9911,1.9928,1.9941,0,0,0,0,0,0,1.9932,1.9889,1.986,1.9905,1.9894,1.9859,1.9887,1.985,1.9849,1.9841,1.9789,1.9784,1.9821,1.9806,1.9772,1.9843,1.979,1.9797,1.9851,1.9866,1.9878,1.988,1.9699,0,0,0,0,0,1.9957,1.9971,1.9933,1.9976,1.9972,1.9931,1.9934,1.9903,1.9889,1.9884,1.9861,1.9849,1.9854,1.986,1.9863,1.9915,1.9906,1.9941,1.9954,1.9964,1.997,1.9994,2.0008,1.9854,1.9854,1.9854,0,0,2.0009,1.9988,2.0,1.9994,1.9981,1.9995,1.9927,1.9946,1.9955,1.9887,1.9913,1.9896,1.9879,1.9919,1.9936,1.9908,2.0011,1.9972,1.9981,1.9981,2.0002,2.0017,2.003,1.9858,1.9858,1.9857,0,0,2.0111,2.0098,2.0131,2.0119,2.0101,2.0073,2.0081,2.0052,2.0037,2.0063,2.0011,2.0022,2.0034,2.0023,2.002,2.0116,2.0076,2.0119,2.0184,2.0207,2.0219,2.023,2.0262,2.0275,2.0126,2.0126,2.0126,0,2.0178,2.0198,2.0153,2.0174,2.0172,2.011,2.0142,2.0133,2.0118,2.0117,2.0087,2.0099,2.0084,2.0119,2.0143,2.0143,2.0149,2.0121,2.0221,2.0231,2.0241,2.0271,2.0283,2.0131,2.0131,2.013,2.013,0,2.028,2.0295,2.0324,2.0309,2.031,2.0338,2.0295,2.0302,2.0271,2.0246,2.0272,2.0251,2.0248,2.0255,2.0224,2.0286,2.0269,2.0231,2.0176,2.0261,2.0288,2.03,2.0139,2.0137,2.0135,2.0134,0,0,2.0438,2.0397,2.0408,2.04,2.0374,2.0384,2.0408,2.0405,2.0411,2.0402,2.0419,2.043,2.0394,2.039,2.0358,2.0379,2.0453,2.0337,2.0336,2.0358,2.0517,2.0544,2.0558,2.0427,2.0429,2.0431,2.0517,0,2.0532,2.057,2.0529,2.0575,2.0586,2.0527,2.0547,2.0533,2.0511,2.0516,2.0491,2.0499,2.0452,2.0449,2.0467,2.0441,2.0484,2.0434,2.0441,2.0442,2.0445,2.0573,2.0602,2.0685,2.0528,2.053,2.0531,0,2.0647,2.0642,2.0689,2.0659,2.0662,2.0681,2.0673,2.068,2.0663,2.0645,2.064,2.0601,2.062,2.0568,2.0594,2.056,2.0561,2.0548,2.0551,2.0548,2.0491,2.0572,2.0711,2.0723,2.0548,2.0547,2.0546,0,2.0755,2.076,2.0788,2.0783,2.0749,2.0763,2.075,2.073,2.073,2.0723,2.0722,2.0719,2.0717,2.0715,2.0675,2.0641,2.0705,2.065,2.0689,2.069,2.0704,2.0703,2.0843,2.0708,2.0708,2.0707,2.0707,0,2.0863,2.0893,2.0835,2.0853,2.0884,2.0837,2.0869,2.085,2.0832,2.0844,2.0793,2.0805,2.0753,2.0759,2.0728,2.0753,2.0753,2.0737,2.0729,2.0741,2.0743,2.0739,2.0732,2.0711,2.071,2.0709,2.0709,0,2.0987,2.095,2.0976,2.0942,2.0934,2.0959,2.0928,2.0942,2.0916,2.0931,2.0932,2.089,2.0895,2.0855,2.0853,2.0832,2.087,2.0852,2.0875,2.0869,2.0909,2.0905,2.105,2.1065,2.0923,2.0924,2.0926,0,2.1058,2.1079,2.1047,2.1051,2.1039,2.1047,2.1046,2.1,2.1002,2.0982,2.0998,2.0998,2.0996,2.1005,2.0974,2.0971,2.0951,2.1002,2.0951,2.0961,2.0949,2.0948,2.0949,2.1013,2.1015,2.1016,2.1017,0,2.1186,2.1166,2.1167,2.1162,2.1162,2.1156,2.1146,2.1152,2.1102,2.1106,2.1109,2.1107,2.1103,2.1103,2.1094,2.1079,2.1039,2.1034,2.1042,2.1054,2.1066,2.1058,2.0903,2.103,2.1029,2.1028,2.1027,2.1027,2.1284,2.1299,2.1278,2.1281,2.1268,2.126,2.127,2.1245,2.1247,2.124,2.1213,2.1221,2.1201,2.1184,2.1173,2.1178,2.1153,2.1166,2.1169,2.1172,2.1178,2.1067,2.1176,2.1176,2.1176,2.1175,2.1175,0,2.1407,2.139,2.1393,2.138,2.1382,2.1345,2.1331,2.1335,2.1342,2.1328,2.1326,2.1329,2.1328,2.1297,2.1292,2.1302,2.1283,2.1302,2.13,2.1297,2.1202,2.1194,2.1317,2.1317,2.1317,2.1317,2.1317,2.1317,2.1471,2.1495,2.1472,2.1489,2.1472,2.1479,2.1474,2.1465,2.1453,2.1459,2.1458,2.1437,2.1416,2.1409,2.1406,2.1397,2.1396,2.1421,2.1405,2.1317,2.1304,2.129,2.1283,2.1422,2.1422,2.1499,2.15,2.15]}]]